When you browse on this site, cookies collect data to enhance your experience and personalize the content and advertising you see.
Visit our Privacy Policy to learn more. By continuing to use the site, you agree to this use of cookies and data.
  • In United Kingdom
  • List of Countries
  • For 7 days
  • Water Temperature
  • Satellite Maps
  • Weather Map
  • Weather Widgets
  • user-avatar
    Login

    Hourly Weather Les Pennes-Mirabeau

    Today, 24 April, Wednesday

    Time Temperature Precipitation Wind Pressure Humidity
    00:00 +15°C° 0 mm 7 mps 743 mmHg 82%
    01:00 +15°C° 0.1 mm 7 mps 743 mmHg 83%
    02:00 +15°C° 0.1 mm 8 mps 743 mmHg 83%
    03:00 +15°C° 0.1 mm 8 mps 743 mmHg 83%
    04:00 +15°C° 0.5 mm 9 mps 743 mmHg 83%
    05:00 +15°C° 0.5 mm 9 mps 744 mmHg 83%
    06:00 +13°C° 0.5 mm 10 mps 744 mmHg 83%
    07:00 +13°C° 0.9 mm 10 mps 744 mmHg 80%
    08:00 +14°C° 0.9 mm 10 mps 745 mmHg 78%
    09:00 +14°C° 0.9 mm 10 mps 745 mmHg 76%
    10:00 +16°C° 0.2 mm 10 mps 746 mmHg 67%
    11:00 +17°C° 0.2 mm 10 mps 746 mmHg 59%
    12:00 +18°C° 0.2 mm 9 mps 747 mmHg 51%
    13:00 +17°C° 0 mm 9 mps 747 mmHg 50%
    14:00 +17°C° 0 mm 9 mps 747 mmHg 49%
    15:00 +17°C° 0 mm 9 mps 748 mmHg 48%
    16:00 +16°C° 0 mm 8 mps 748 mmHg 51%
    17:00 +16°C° 0 mm 8 mps 748 mmHg 54%
    18:00 +15°C° 0 mm 7 mps 748 mmHg 57%
    19:00 +15°C° 0 mm 7 mps 749 mmHg 60%
    20:00 +14°C° 0 mm 7 mps 750 mmHg 62%
    21:00 +14°C° 0 mm 6 mps 750 mmHg 64%
    22:00 +14°C° 0 mm 7 mps 751 mmHg 67%
    23:00 +12°C° 0 mm 7 mps 751 mmHg 69%

    Tomorrow, 25 April, Thursday

    Time Temperature Precipitation Wind Pressure Humidity
    00:00 +12°C° 0 mm 7 mps 751 mmHg 72%
    01:00 +12°C° 0 mm 8 mps 751 mmHg 71%
    02:00 +12°C° 0 mm 8 mps 750 mmHg 71%
    03:00 +12°C° 0 mm 8 mps 750 mmHg 70%
    04:00 +12°C° 0 mm 9 mps 750 mmHg 71%
    05:00 +12°C° 0 mm 9 mps 750 mmHg 72%
    06:00 +12°C° 0 mm 9 mps 750 mmHg 72%
    07:00 +13°C° 0.1 mm 9 mps 750 mmHg 72%
    08:00 +13°C° 0.1 mm 10 mps 750 mmHg 71%
    09:00 +14°C° 0.1 mm 10 mps 750 mmHg 71%
    10:00 +16°C° 0 mm 10 mps 750 mmHg 67%
    11:00 +17°C° 0 mm 10 mps 750 mmHg 63%
    12:00 +17°C° 0 mm 10 mps 750 mmHg 60%
    13:00 +18°C° 0 mm 10 mps 750 mmHg 58%
    14:00 +18°C° 0 mm 10 mps 750 mmHg 57%
    15:00 +18°C° 0 mm 10 mps 750 mmHg 56%
    16:00 +17°C° 0.1 mm 10 mps 750 mmHg 60%
    17:00 +17°C° 0.1 mm 10 mps 750 mmHg 64%
    18:00 +16°C° 0.1 mm 10 mps 750 mmHg 68%
    19:00 +14°C° 0.5 mm 10 mps 750 mmHg 71%
    20:00 +15°C° 0.5 mm 9 mps 750 mmHg 73%
    21:00 +15°C° 0.5 mm 9 mps 751 mmHg 76%
    22:00 +13°C° 2.9 mm 8 mps 750 mmHg 79%
    23:00 +14°C° 2.9 mm 6 mps 750 mmHg 83%

    Day after tomorrow, 26 April, Friday

    Time Temperature Precipitation Wind Pressure Humidity
    00:00 +14°C° 2.9 mm 5 mps 750 mmHg 87%
    01:00 +14°C° 1.6 mm 5 mps 750 mmHg 85%
    02:00 +14°C° 1.6 mm 4 mps 750 mmHg 83%
    03:00 +14°C° 1.6 mm 4 mps 750 mmHg 81%
    04:00 +13°C° 0.3 mm 4 mps 751 mmHg 79%
    05:00 +13°C° 0.3 mm 4 mps 751 mmHg 76%
    06:00 +13°C° 0.3 mm 5 mps 751 mmHg 74%
    07:00 +13°C° 0 mm 5 mps 752 mmHg 66%
    08:00 +14°C° 0 mm 6 mps 752 mmHg 58%
    09:00 +15°C° 0 mm 7 mps 753 mmHg 50%
    10:00 +16°C° 0 mm 7 mps 753 mmHg 48%
    11:00 +17°C° 0 mm 7 mps 753 mmHg 45%
    12:00 +17°C° 0 mm 7 mps 753 mmHg 43%
    13:00 +18°C° 0 mm 8 mps 753 mmHg 42%
    14:00 +18°C° 0 mm 8 mps 753 mmHg 42%
    15:00 +18°C° 0 mm 8 mps 753 mmHg 41%
    16:00 +18°C° 0 mm 8 mps 753 mmHg 42%
    17:00 +17°C° 0 mm 8 mps 754 mmHg 44%
    18:00 +17°C° 0 mm 7 mps 754 mmHg 45%
    19:00 +16°C° 0 mm 8 mps 754 mmHg 48%
    20:00 +16°C° 0 mm 8 mps 755 mmHg 50%
    21:00 +15°C° 0 mm 8 mps 756 mmHg 53%
    22:00 +15°C° 0 mm 8 mps 756 mmHg 56%
    23:00 +13°C° 0 mm 8 mps 756 mmHg 58%

    27 April, Saturday

    Time Temperature Precipitation Wind Pressure Humidity
    00:00 +12°C° 0 mm 8 mps 756 mmHg 61%
    01:00 +12°C° 0 mm 8 mps 756 mmHg 62%
    02:00 +11°C° 0 mm 8 mps 756 mmHg 63%
    03:00 +11°C° 0 mm 7 mps 756 mmHg 64%
    04:00 +11°C° 0 mm 8 mps 756 mmHg 62%
    05:00 +11°C° 0 mm 8 mps 756 mmHg 61%
    06:00 +10°C° 0 mm 8 mps 756 mmHg 59%
    07:00 +12°C° 0 mm 8 mps 756 mmHg 53%
    08:00 +13°C° 0 mm 8 mps 756 mmHg 48%
    09:00 +15°C° 0 mm 8 mps 756 mmHg 42%
    10:00 +16°C° 0 mm 8 mps 756 mmHg 42%
    11:00 +17°C° 0 mm 8 mps 755 mmHg 41%
    12:00 +18°C° 0 mm 8 mps 755 mmHg 41%
    13:00 +18°C° 0 mm 9 mps 755 mmHg 41%
    14:00 +18°C° 0 mm 9 mps 755 mmHg 41%
    15:00 +18°C° 0 mm 10 mps 754 mmHg 42%
    16:00 +17°C° 0 mm 10 mps 754 mmHg 43%
    17:00 +17°C° 0 mm 10 mps 754 mmHg 44%
    18:00 +16°C° 0 mm 11 mps 754 mmHg 45%
    19:00 +14°C° 0 mm 11 mps 755 mmHg 46%
    20:00 +13°C° 0 mm 11 mps 755 mmHg 47%
    21:00 +13°C° 0 mm 11 mps 755 mmHg 48%
    22:00 +12°C° 0 mm 11 mps 755 mmHg 50%
    23:00 +11°C° 0 mm 11 mps 755 mmHg 52%

    28 April, Sunday

    Time Temperature Precipitation Wind Pressure Humidity
    00:00 +11°C° 0 mm 10 mps 755 mmHg 54%
    01:00 +9°C° 0 mm 10 mps 755 mmHg 54%
    02:00 +9°C° 0 mm 10 mps 754 mmHg 54%
    03:00 +8°C° 0 mm 10 mps 754 mmHg 55%
    04:00 +8°C° 0 mm 10 mps 754 mmHg 54%
    05:00 +8°C° 0 mm 10 mps 754 mmHg 54%
    06:00 +8°C° 0 mm 10 mps 753 mmHg 54%
    07:00 +9°C° 0 mm 10 mps 753 mmHg 51%
    08:00 +12°C° 0 mm 10 mps 753 mmHg 47%
    09:00 +13°C° 0 mm 10 mps 753 mmHg 44%
    10:00 +14°C° 0 mm 11 mps 753 mmHg 41%
    11:00 +16°C° 0 mm 11 mps 752 mmHg 39%
    12:00 +17°C° 0 mm 11 mps 752 mmHg 36%
    13:00 +17°C° 0 mm 11 mps 751 mmHg 36%
    14:00 +17°C° 0 mm 11 mps 751 mmHg 36%
    15:00 +17°C° 0 mm 11 mps 751 mmHg 36%
    16:00 +17°C° 0 mm 11 mps 751 mmHg 39%
    17:00 +16°C° 0 mm 11 mps 751 mmHg 42%
    18:00 +14°C° 0 mm 11 mps 751 mmHg 45%
    19:00 +13°C° 0 mm 10 mps 752 mmHg 48%
    20:00 +12°C° 0 mm 10 mps 752 mmHg 51%
    21:00 +12°C° 0 mm 10 mps 753 mmHg 54%
    22:00 +11°C° 0 mm 9 mps 753 mmHg 57%
    23:00 +11°C° 0 mm 8 mps 753 mmHg 59%

    29 April, Monday

    Time Temperature Precipitation Wind Pressure Humidity
    00:00 +10°C° 0 mm 7 mps 752 mmHg 62%
    01:00 +10°C° 0 mm 6 mps 752 mmHg 63%
    02:00 +9°C° 0 mm 5 mps 752 mmHg 65%
    03:00 +9°C° 0 mm 5 mps 752 mmHg 67%
    04:00 +9°C° 0 mm 5 mps 752 mmHg 65%
    05:00 +10°C° 0 mm 4 mps 752 mmHg 64%
    06:00 +10°C° 0 mm 4 mps 752 mmHg 62%
    07:00 +12°C° 0 mm 4 mps 751 mmHg 54%
    08:00 +14°C° 0 mm 3 mps 751 mmHg 47%
    09:00 +17°C° 0 mm 3 mps 751 mmHg 39%
    10:00 +18°C° 0 mm 3 mps 751 mmHg 36%
    11:00 +20°C° 0 mm 3 mps 751 mmHg 32%
    12:00 +21°C° 0 mm 3 mps 751 mmHg 29%
    13:00 +21°C° 0 mm 3 mps 750 mmHg 29%
    14:00 +21°C° 0 mm 3 mps 750 mmHg 29%
    15:00 +22°C° 0 mm 3 mps 750 mmHg 29%
    16:00 +21°C° 0 mm 3 mps 750 mmHg 32%
    17:00 +20°C° 0 mm 3 mps 750 mmHg 36%
    18:00 +19°C° 0 mm 3 mps 750 mmHg 39%
    19:00 +18°C° 0 mm 2 mps 750 mmHg 43%
    20:00 +18°C° 0 mm 2 mps 751 mmHg 46%
    21:00 +18°C° 0 mm 1 mps 751 mmHg 49%
    22:00 +16°C° 0 mm 1 mps 751 mmHg 50%
    23:00 +16°C° 0 mm 1 mps 751 mmHg 52%
    Show more